EW4071 Weather Reports


Display with metric or nautical units.
time (UTC)temp
F
wind
direction
speed
MPH
gust
MPH
rain 1hr
in
rain 24hr
in
rain mn
in
humidity
%
barometer
mb
20260509204507 84 136 0.0 8.0 0.00 0.00 0.00 30 1006.4
20260509203008 84 128 3.0 11.0 0.00 0.00 0.00 29 1006.6
20260509201504 84 92 3.0 12.0 0.00 0.00 0.00 28 1006.8
20260509200001 84 126 0.0 7.0 0.00 0.00 0.00 28 1007.1
20260509194600 83 330 0.0 8.0 0.00 0.13 0.00 25 1007.2
20260509193057 83 130 1.0 10.0 0.00 0.13 0.00 27 1007.3
20260509191555 83 138 6.0 10.0 0.00 0.13 0.00 28 1007.5
20260509190054 83 153 3.0 8.0 0.00 0.13 0.00 34 1007.7
20260509184550 82 152 3.0 11.0 0.00 0.14 0.00 30 1007.8
20260509183049 81 169 0.0 6.0 0.00 0.14 0.00 34 1008.0
20260509181604 81 111 2.0 7.0 0.00 0.14 0.00 36 1008.1
20260509180045 82 209 0.0 8.0 0.00 0.14 0.00 33 1008.3
20260509174544 81 143 0.0 5.0 0.00 0.14 0.00 35 1008.4
20260509173041 80 175 0.0 0.0 0.00 0.14 0.00 37 1008.6
20260509171539 80 237 0.0 0.0 0.00 0.14 0.00 36 1008.8
20260509170036 80 227 2.0 5.0 0.00 0.14 0.00 34 1009.0
20260509164534 79 146 0.0 6.0 0.00 0.14 0.00 38 1009.1
20260509163047 80 236 0.0 0.0 0.00 0.14 0.00 39 1009.1
20260509161528 78 258 0.0 0.0 0.00 0.14 0.00 41 1009.0
20260509160026 76 256 0.0 0.0 0.00 0.14 0.00 51 1009.1
20260509154522 76 258 0.0 0.0 0.00 0.14 0.00 55 1008.9
20260509153021 74 260 0.0 0.0 0.00 0.14 0.00 62 1008.8
20260509151516 73 259 0.0 0.0 0.00 0.14 0.00 67 1009.0
20260509150011 71 255 0.0 0.0 0.00 0.14 0.00 71 1008.9
20260509144508 70 294 0.0 0.0 0.00 0.14 0.00 75 1008.7
20260509143003 67 291 0.0 0.0 0.00 0.14 0.00 82 1008.7
20260509141559 65 273 0.0 0.0 0.00 0.14 0.00 84 1008.9
20260509140109 63 303 0.0 0.0 0.00 0.14 0.00 85 1008.9
20260509134554 61 304 0.0 0.0 0.00 0.14 0.00 88 1008.9
20260509133101 60 303 0.0 4.0 0.00 0.14 0.00 88 1008.9
20260509131551 60 290 0.0 0.0 0.00 0.14 0.00 88 1008.7
20260509130049 58 142 0.0 0.0 0.00 0.14 0.00 91 1008.7
20260509124553 57 142 0.0 0.0 0.00 0.14 0.00 94 1008.6
20260509123048 55 142 0.0 0.0 0.00 0.14 0.00 97 1008.5
20260509121546 53 142 0.0 0.0 0.00 0.14 0.00 97 1008.3
20260509120046 53 142 0.0 0.0 0.00 0.14 0.00 97 1008.1
20260509114554 53 142 0.0 0.0 0.00 0.14 0.00 97 1008.1
20260509113046 53 142 0.0 0.0 0.00 0.14 0.00 97 1007.8
20260509111545 52 142 0.0 0.0 0.00 0.14 0.00 96 1007.8
20260509110048 52 141 0.0 0.0 0.00 0.14 0.00 96 1007.8
20260509104543 52 142 0.0 0.0 0.00 0.14 0.00 96 1007.8
20260509103041 53 142 0.0 0.0 0.00 0.14 0.00 96 1007.8
20260509101540 54 142 0.0 0.0 0.00 0.14 0.00 96 1007.9
20260509100040 54 142 0.0 0.0 0.00 0.14 0.00 96 1008.0
20260509094539 54 142 0.0 0.0 0.00 0.14 0.00 97 1008.0
20260509093037 54 142 0.0 0.0 0.00 0.14 0.00 96 1008.0
20260509091537 53 142 0.0 0.0 0.00 0.14 0.00 95 1008.1
20260509090035 54 142 0.0 0.0 0.00 0.14 0.00 95 1008.2
20260509084537 54 142 0.0 0.0 0.00 0.14 0.00 95 1008.1
20260509083031 54 142 0.0 0.0 0.00 0.14 0.00 95 1008.1
20260509081530 54 141 0.0 0.0 0.00 0.14 0.00 94 1008.2
20260509080040 54 142 0.0 0.0 0.00 0.14 0.00 93 1008.3
20260509074528 55 142 0.0 0.0 0.00 0.14 0.00 92 1008.2
20260509073038 56 142 0.0 0.0 0.00 0.14 0.00 91 1008.4
20260509071523 56 142 0.0 0.0 0.00 0.14 0.00 92 1008.3
20260509070021 56 142 0.0 0.0 0.00 0.14 0.00 89 1008.4
20260509064519 58 142 0.0 0.0 0.00 0.14 0.00 89 1008.4
20260509063025 58 142 0.0 0.0 0.00 0.14 0.00 89 1008.4
20260509061517 57 142 0.0 0.0 0.00 0.14 0.00 90 1008.3
20260509060016 58 142 0.0 0.0 0.00 0.14 0.00 89 1008.3
20260509054522 59 142 0.0 0.0 0.00 0.14 0.00 86 1008.6
20260509053012 61 142 0.0 0.0 0.00 0.14 0.00 86 1008.6
20260509051505 61 142 0.0 0.0 0.00 0.14 0.00 87 1008.6
20260509050005 61 142 0.0 0.0 0.00 0.14 0.00 84 1008.5
20260509044501 62 346 0.0 0.0 0.00 0.14 0.14 81 1008.6
20260509043000 61 344 0.0 0.0 0.00 0.14 0.14 81 1008.7
20260509041600 61 344 0.0 0.0 0.00 0.14 0.14 80 1008.7
20260509040107 62 344 0.0 0.0 0.00 0.14 0.14 77 1008.6
20260509034559 63 344 0.0 0.0 0.00 0.14 0.14 76 1008.5
20260509033059 64 344 0.0 0.0 0.00 0.14 0.14 74 1008.2
20260509031558 64 344 0.0 0.0 0.00 0.14 0.14 70 1008.0
20260509030057 65 344 0.0 0.0 0.00 0.14 0.14 66 1007.8
20260509024556 67 344 0.0 0.0 0.00 0.14 0.14 63 1007.6
20260509023054 68 344 0.0 0.0 0.00 0.14 0.14 62 1007.2
20260509021553 69 351 0.0 0.0 0.00 0.14 0.14 61 1007.0
20260509020050 70 45 0.0 0.0 0.00 0.14 0.14 60 1006.8
20260509014550 71 358 0.0 0.0 0.00 0.14 0.14 58 1006.5
20260509013100 72 329 0.0 0.0 0.00 0.14 0.14 56 1006.1
20260509011548 73 3 0.0 0.0 0.00 0.14 0.14 53 1005.7
20260509010148 74 112 0.0 3.0 0.00 0.14 0.14 50 1005.4
20260509004608 75 318 0.0 1.0 0.00 0.14 0.14 48 1005.1
20260509003050 76 325 1.0 10.0 0.00 0.14 0.14 46 1004.9
20260509001545 77 99 0.0 6.0 0.00 0.14 0.14 44 1004.4
20260509000045 78 318 0.0 6.0 0.00 0.14 0.14 41 1004.1
20260508234546 79 3 3.0 9.0 0.00 0.14 0.14 38 1003.7
20260508233050 79 48 0.0 13.0 0.00 0.14 0.14 41 1003.7
20260508231543 79 26 1.0 8.0 0.00 0.14 0.14 43 1003.6
20260508230054 80 316 0.0 10.0 0.00 0.14 0.14 41 1003.4
20260508224541 81 20 3.0 10.0 0.00 0.14 0.14 44 1003.3
20260508223040 81 316 1.0 11.0 0.00 0.14 0.14 43 1003.1
20260508221541 81 319 4.0 10.0 0.00 0.14 0.14 44 1003.3
20260508220041 79 20 1.0 4.0 0.00 0.14 0.14 60 1003.3
20260508214541 79 320 0.0 0.0 0.00 0.14 0.14 58 1003.0
20260508213038 83 256 0.0 6.0 0.00 0.14 0.14 56 1003.2
20260508211536 79 251 0.0 0.0 0.00 0.14 0.14 59 1003.2
20260508210036 77 310 0.0 0.0 0.00 0.14 0.14 65 1003.3